Temp
7 7 7 7 7 8 8 8 8 7 7 7 7 7 7 7 7 7 7 7 7 7 7 7 8 8 8 8 8 8 8 8 8 8 8 8 8 8 8 8 8 8 8 8 8 9 9 9 9 9 9 9
7 7 7 7 7 7 7 7 7 7 7 7 7 7 7 7 7 7 7 7 7 7 7 7 7 7 7 7 7 7 7 7 8 8 8 8 8 8 8 8 8 8 8 8 8 8 8 9 9 8 8 8
7 7 7 7 7 7 7 7 7 7 7 7 7 7 7 7 7 7 7 7 7 7 7 7 7 7 7 7 7 7 7 7 7 7 7 7 8 8 7 7 7 7 7 7 7 8 8 8 8 8 8 8
7 7 7 7 7 7 7 7 7 7 7 7 7 7 7 7 7 7 7 7 7 7 7 7 7 7 7 7 7 7 7 7 7 7 7 7 7 7 7 7 7 7 7 7 7 7 8 8 8 8 8 8
7 7 7 7 7 7 7 7 7 7 7 7 7 7 7 7 7 7 7 7 7 7 7 7 7 7 7 7 7 7 7 7 7 7 7 7 7 7 7 7 7 7 7 7 7 7 8 8 8 8 8 8
6 7 7 7 7 7 7 6 6 6 6 6 7 7 7 7 7 7 7 7 7 7 7 7 6 6 6 6 6 6 6 6 6 7 7 7 7 7 7 7 7 7 7 7 7 7 7 8 8 8 8 8
6 6 6 6 6 6 6 6 6 6 6 6 6 6 6 6 6 6 6 6 6 6 6 6 6 6 6 6 6 6 6 6 6 6 6 6 6 6 7 7 7 7 7 7 7 7 7 7 7 7 7 7
6 6 6 6 6 6 6 6 6 6 6 6 6 6 6 6 6 6 6 6 6 6 6 6 6 6 6 6 6 6 6 6 6 6 6 6 6 6 6 7 7 7 7 7 7 7 7 7 7 7 7 7
6 5 5 5 5 6 5 5 5 5 5 5 5 5 5 5 5 5 5 5 5 5 5 5 5 5 5 5 5 5 6 6 6 6 6 6 6 6 6 6 6 6 6 6 6 6 6 6 7 7 7 7
5 5 5 5 5 5 5 5 5 5 5 5 5 5 5 5 5 5 5 5 5 5 5 5 5 5 5 5 5 5 5 5 5 5 5 5 5 5 5 5 5 5 5 6 6 6 6 6 6 6 6 6
5 4 4 4 4 4 5 5 5 5 5 5 5 4 4 4 4 4 4 4 4 4 4 4 4 4 4 4 4 4 4 5 5 5 5 5 5 5 5 5 5 5 5 5 5 5 5 5 5 6 6 6
4 4 4 4 4 4 4 4 4 4 4 4 4 4 4 4 4 4 4 4 4 4 4 4 4 4 4 4 4 4 4 4 4 4 4 4 4 4 4 4 4 4 4 4 4 5 5 5 5 5 5 5
4 4 4 4 4 4 4 4 4 4 4 4 4 4 3 3 3 3 3 3 3 3 3 3 3 3 3 3 3 3 3 3 4 4 4 4 4 4 4 4 4 4 4 4 4 4 4 4 4 5 5 5
4 4 4 4 4 4 4 4 4 4 4 3 3 3 3 3 3 3 3 2 2 2 2 2 2 2 3 3 3 3 3 3 3 3 3 3 3 3 3 4 4 4 3 3 3 3 3 4 4 4 4 4
4 4 4 4 4 4 4 4 4 3 3 3 3 3 3 3 2 2 2 2 2 2 2 2 2 2 2 2 2 2 2 2 2 2 2 2 3 3 3 3 3 3 3 3 3 3 3 3 3 3 4 4
4 4 4 4 3 4 4 3 3 3 3 3 3 2 2 2 2 2 2 2 2 2 2 2 2 2 2 2 2 2 2 2 2 2 2 2 2 2 2 2 2 2 2 3 3 3 3 3 3 3 3 3
3 3 4 3 3 3 3 3 3 3 2 2 2 2 2 2 2 2 2 2 2 2 2 2 2 2 2 2 1 1 1 1 1 1 1 1 1 2 2 2 2 2 2 2 2 2 2 2 2 2 2 3
3 3 3 3 3 3 3 3 3 2 2 2 2 2 2 2 2 2 2 2 2 2 2 2 2 2 2 1 1 1 1 1 1 1 1 1 1 1 1 1 1 2 2 2 2 2 2 2 2 2 2 2
2 3 3 3 3 3 3 3 2 2 2 2 2 2 2 2 2 2 2 2 2 2 2 2 2 2 1 1 1 1 1 1 1 1 0 1 1 1 1 1 1 1 1 1 1 1 1 1 2 1 2 2
2 2 2 2 2 2 2 2 2 2 2 2 2 2 2 2 2 2 2 2 2 2 2 2 1 1 1 1 1 1 1 1 0 0 0 0 0 0 0 0 0 0 1 1 1 1 1 1 1 1 1 1
2 2 2 2 2 2 2 2 2 2 2 2 1 2 2 2 2 2 2 2 2 1 1 1 1 1 1 1 1 1 0 0 0 0 -0 -0 -0 -0 -0 -0 -0 -0 0 0 0 0 0 0 0 0 0 1
2 2 2 2 2 2 2 2 2 2 2 1 1 1 2 2 1 1 1 1 1 1 1 1 1 1 1 0 0 0 -0 -0 -0 -0 -0 -1 -1 -1 -1 -1 -1 -1 -1 -1 -0 -0 -0 -0 -0 -0 -0 0
2 2 2 2 2 2 2 2 2 2 1 1 1 1 1 1 1 1 1 1 1 1 1 1 0 0 0 0 -0 -0 -0 -0 -1 -1 -1 -1 -1 -1 -1 -1 -1 -1 -1 -1 -1 -1 -1 -0 -0 -0 -0 -0
2 2 2 2 2 2 2 1 2 2 1 1 1 0 0 0 1 0 0 0 -0 0 0 0 0 -0 -0 -0 -0 -1 -1 -1 -1 -1 -1 -1 -1 -1 -2 -2 -2 -2 -1 -1 -1 -1 -1 -1 -1 -1 -1 -1
2 2 2 2 2 2 1 1 1 2 1 1 1 0 -0 -0 -0 -0 -0 -1 -1 -0 -0 -0 -0 -0 -1 -1 -1 -1 -1 -1 -1 -1 -2 -2 -2 -2 -2 -2 -2 -2 -2 -2 -1 -0 -0 -1 -1 -2 -2 -2
2 3 2 2 2 1 1 1 1 1 1 1 1 0 -0 -1 -1 -1 -1 -1 -1 -1 -0 -0 -1 -1 -1 -1 -1 -1 -1 -2 -2 -2 -2 -2 -2 -2 -2 -3 -3 -3 -3 -3 -3 -2 -2 -2 -2 -2 -3 -3
3 3 2 2 1 1 1 1 1 1 1 1 1 0 -0 -1 -1 -1 -0 -1 -1 -1 -1 -1 -1 -1 -1 -1 -1 -1 -1 -2 -2 -2 -2 -2 -2 -3 -3 -3 -3 -3 -4 -4 -4 -4 -4 -4 -4 -4 -4 -4
3 2 2 1 1 1 0 1 1 1 2 1 1 0 -0 -1 -1 -1 -0 -1 -1 -1 -1 -1 -1 -1 -2 -2 -2 -2 -2 -2 -2 -2 -2 -3 -3 -3 -3 -3 -4 -4 -4 -5 -5 -5 -6 -6 -6 -6 -6 -5
2 2 1 1 1 1 1 1 1 2 2 2 1 0 -0 -1 -1 -1 -1 -1 -1 -1 -2 -2 -2 -2 -2 -2 -2 -2 -2 -2 -2 -2 -3 -3 -3 -3 -4 -4 -4 -4 -5 -5 -5 -6 -7 -7 -8 -8 -7 -7
2 2 1 1 1 1 1 1 1 2 2 2 1 1 -0 -1 -1 -1 -1 -1 -1 -2 -2 -2 -2 -2 -2 -2 -2 -2 -3 -3 -3 -3 -3 -3 -3 -4 -4 -4 -4 -5 -5 -6 -6 -6 -6 -7 -8 -8 -8 -9
2 2 1 1 1 1 1 1 2 2 2 2 1 1 0 -0 -1 -1 -1 -1 -1 -2 -2 -2 -2 -2 -2 -2 -3 -3 -3 -3 -3 -3 -3 -3 -4 -4 -4 -5 -5 -5 -6 -6 -6 -6 -7 -7 -7 -8 -8 -9
Height
1540 1540 1540 1539 1539 1538 1538 1537 1537 1537 1536 1536 1535 1534 1534 1533 1533 1532 1532 1531 1531 1531 1530 1529 1529 1528 1528 1528 1527 1527 1526 1526 1525 1524 1524 1523 1523 1522 1521 1521 1520 1520 1519 1518 1518 1517 1516 1515 1515 1514 1514 1513
1539 1539 1539 1539 1538 1538 1537 1537 1537 1537 1536 1536 1536 1535 1534 1533 1533 1532 1532 1532 1531 1531 1530 1530 1529 1528 1528 1527 1527 1526 1526 1525 1525 1524 1524 1523 1522 1521 1521 1520 1519 1518 1518 1517 1517 1516 1516 1515 1514 1513 1512 1512
1538 1538 1538 1538 1538 1538 1537 1537 1537 1537 1537 1537 1536 1535 1535 1534 1533 1533 1532 1532 1531 1531 1530 1530 1529 1528 1528 1527 1527 1526 1525 1525 1524 1524 1523 1522 1522 1521 1520 1519 1518 1518 1517 1516 1516 1515 1515 1514 1513 1512 1511 1511
1537 1537 1538 1538 1538 1538 1538 1538 1538 1537 1537 1537 1536 1536 1535 1534 1534 1533 1532 1532 1531 1530 1530 1529 1529 1528 1528 1527 1526 1526 1525 1525 1524 1523 1522 1522 1521 1521 1520 1519 1518 1517 1516 1515 1515 1514 1514 1513 1512 1511 1510 1509
1537 1537 1537 1537 1537 1537 1537 1537 1537 1537 1537 1537 1536 1535 1535 1534 1533 1532 1532 1531 1530 1529 1529 1528 1528 1527 1527 1526 1526 1525 1525 1524 1523 1523 1522 1521 1521 1520 1519 1518 1518 1517 1516 1515 1514 1513 1512 1512 1511 1510 1509 1508
1536 1536 1536 1536 1537 1537 1537 1537 1537 1537 1537 1536 1536 1535 1534 1533 1532 1531 1530 1530 1529 1528 1528 1527 1527 1527 1526 1526 1525 1525 1524 1523 1523 1522 1521 1521 1520 1519 1518 1518 1517 1516 1515 1514 1513 1512 1511 1510 1509 1508 1508 1507
1534 1535 1535 1536 1536 1537 1537 1537 1537 1536 1536 1536 1535 1534 1533 1533 1531 1531 1529 1529 1528 1527 1527 1527 1526 1526 1526 1525 1525 1524 1523 1523 1522 1521 1520 1520 1519 1518 1517 1516 1515 1514 1514 1513 1512 1511 1510 1509 1508 1507 1506 1506
1534 1534 1535 1535 1536 1536 1536 1536 1536 1536 1535 1535 1534 1534 1533 1532 1531 1530 1529 1529 1528 1527 1527 1526 1526 1525 1525 1524 1524 1523 1523 1522 1521 1520 1520 1519 1518 1517 1516 1515 1514 1513 1512 1511 1510 1510 1509 1508 1507 1506 1505 1505
1533 1533 1534 1534 1535 1535 1535 1535 1535 1534 1534 1534 1533 1533 1532 1532 1531 1530 1529 1528 1528 1527 1526 1525 1525 1524 1524 1523 1523 1522 1521 1520 1519 1519 1518 1517 1517 1516 1515 1514 1513 1512 1511 1510 1509 1508 1507 1507 1506 1505 1504 1504
1532 1532 1532 1533 1533 1533 1533 1533 1533 1533 1533 1533 1533 1532 1532 1531 1530 1530 1529 1528 1527 1526 1525 1525 1524 1523 1522 1522 1521 1520 1519 1518 1518 1517 1516 1515 1515 1514 1513 1513 1512 1511 1510 1509 1508 1507 1506 1505 1505 1504 1503 1502
1530 1531 1531 1532 1532 1532 1533 1533 1533 1533 1533 1533 1532 1532 1531 1530 1530 1529 1528 1527 1526 1525 1524 1523 1523 1522 1521 1520 1519 1518 1518 1517 1516 1515 1514 1513 1513 1512 1512 1511 1511 1510 1509 1508 1507 1506 1505 1504 1503 1502 1502 1501
1529 1530 1530 1531 1531 1531 1532 1532 1532 1532 1532 1531 1531 1531 1530 1529 1528 1527 1526 1525 1524 1524 1523 1522 1521 1521 1520 1519 1518 1517 1516 1516 1515 1514 1513 1512 1511 1510 1509 1509 1509 1508 1508 1507 1506 1505 1504 1503 1502 1501 1500 1499
1528 1529 1530 1530 1530 1530 1531 1531 1531 1531 1530 1530 1529 1529 1528 1527 1526 1525 1525 1524 1523 1522 1522 1521 1520 1519 1519 1518 1517 1516 1515 1514 1513 1512 1511 1510 1509 1509 1508 1507 1506 1506 1506 1505 1504 1503 1503 1502 1501 1500 1499 1498
1528 1528 1528 1529 1529 1529 1529 1529 1529 1529 1529 1528 1528 1527 1526 1526 1525 1524 1523 1523 1522 1521 1520 1520 1519 1518 1517 1517 1516 1515 1514 1513 1512 1511 1510 1509 1508 1507 1506 1505 1504 1503 1503 1503 1502 1502 1501 1500 1499 1499 1497 1496
1526 1527 1527 1528 1528 1528 1528 1527 1527 1527 1527 1527 1526 1525 1525 1524 1523 1523 1522 1521 1521 1520 1519 1518 1518 1517 1516 1515 1515 1514 1513 1512 1511 1509 1509 1508 1507 1505 1505 1504 1503 1502 1502 1501 1501 1500 1499 1498 1497 1497 1496 1495
1525 1525 1526 1526 1526 1526 1526 1526 1526 1526 1525 1525 1525 1524 1523 1522 1522 1521 1521 1520 1519 1519 1518 1517 1516 1516 1515 1514 1513 1513 1512 1511 1510 1509 1508 1507 1506 1505 1504 1503 1502 1501 1501 1500 1499 1499 1498 1497 1496 1495 1493 1492
1524 1524 1524 1524 1524 1524 1524 1524 1524 1524 1524 1524 1523 1523 1522 1521 1521 1520 1519 1519 1518 1517 1516 1516 1515 1514 1514 1513 1512 1511 1510 1510 1509 1508 1507 1506 1505 1504 1503 1502 1501 1500 1499 1499 1498 1497 1496 1495 1494 1493 1492 1490
1522 1522 1522 1522 1522 1523 1523 1523 1523 1523 1522 1522 1522 1522 1521 1520 1520 1519 1518 1517 1517 1516 1515 1515 1514 1513 1513 1512 1511 1510 1509 1508 1507 1506 1505 1504 1503 1503 1501 1500 1498 1497 1497 1496 1496 1495 1495 1494 1493 1491 1490 1488
1520 1520 1520 1521 1521 1521 1521 1521 1521 1521 1521 1521 1520 1520 1519 1519 1518 1517 1517 1516 1516 1515 1515 1514 1513 1512 1511 1511 1510 1509 1507 1506 1505 1504 1503 1502 1500 1500 1499 1498 1497 1496 1494 1494 1493 1493 1493 1492 1491 1490 1488 1487
1518 1518 1518 1519 1519 1519 1519 1520 1520 1520 1519 1519 1518 1518 1518 1517 1516 1516 1515 1515 1514 1514 1513 1513 1512 1511 1510 1510 1509 1508 1506 1505 1504 1503 1502 1501 1499 1498 1497 1496 1495 1494 1493 1491 1491 1490 1490 1490 1489 1488 1486 1485
1516 1516 1516 1517 1517 1517 1518 1518 1518 1518 1518 1517 1517 1516 1516 1515 1515 1514 1514 1513 1512 1512 1511 1511 1510 1509 1508 1508 1507 1506 1505 1504 1502 1501 1500 1500 1499 1497 1495 1494 1493 1492 1491 1489 1488 1488 1488 1488 1487 1486 1485 1483
1514 1514 1514 1514 1515 1515 1516 1516 1516 1516 1516 1515 1515 1515 1514 1514 1513 1513 1512 1511 1511 1510 1510 1509 1508 1507 1506 1505 1504 1504 1503 1502 1501 1500 1499 1498 1497 1496 1495 1493 1491 1489 1488 1487 1485 1485 1485 1485 1485 1484 1483 1481
1511 1511 1512 1512 1513 1513 1514 1514 1514 1514 1514 1514 1513 1513 1513 1512 1512 1511 1511 1510 1509 1509 1508 1507 1507 1505 1504 1503 1503 1502 1501 1501 1500 1499 1498 1497 1496 1495 1494 1492 1490 1488 1486 1484 1483 1482 1482 1482 1482 1482 1481 1479
1508 1508 1509 1510 1511 1511 1512 1512 1512 1512 1512 1512 1511 1511 1511 1510 1510 1509 1509 1508 1508 1507 1506 1506 1505 1504 1503 1502 1501 1500 1500 1499 1498 1497 1496 1495 1494 1492 1492 1491 1490 1487 1484 1482 1480 1479 1479 1478 1478 1478 1478 1477
1505 1506 1507 1508 1508 1509 1510 1510 1510 1510 1510 1510 1510 1509 1509 1508 1508 1507 1507 1506 1506 1505 1504 1504 1503 1502 1501 1500 1500 1499 1498 1497 1496 1495 1494 1493 1492 1490 1489 1488 1487 1486 1483 1480 1476 1473 1472 1473 1474 1474 1473 1473
1502 1503 1504 1505 1506 1507 1507 1507 1507 1507 1508 1507 1507 1507 1507 1506 1505 1505 1505 1504 1503 1503 1502 1502 1501 1500 1500 1499 1498 1498 1497 1496 1495 1494 1493 1491 1490 1489 1487 1486 1485 1484 1482 1480 1476 1472 1468 1466 1468 1468 1469 1470
1499 1501 1502 1502 1503 1504 1504 1504 1504 1504 1505 1505 1504 1505 1504 1504 1503 1503 1503 1502 1502 1501 1500 1500 1499 1499 1498 1497 1497 1496 1495 1494 1493 1492 1491 1490 1488 1487 1486 1485 1484 1483 1482 1480 1478 1476 1471 1466 1463 1462 1463 1464
1497 1498 1499 1499 1500 1500 1500 1501 1501 1501 1501 1502 1502 1502 1502 1501 1501 1501 1500 1500 1499 1499 1498 1498 1498 1497 1496 1496 1495 1494 1493 1492 1491 1490 1489 1488 1487 1486 1484 1483 1482 1482 1482 1480 1478 1477 1474 1470 1466 1462 1459 1456
1494 1495 1496 1496 1496 1496 1496 1497 1497 1497 1498 1499 1499 1499 1499 1499 1499 1498 1498 1498 1497 1497 1496 1496 1495 1495 1494 1493 1492 1491 1491 1489 1489 1488 1487 1486 1485 1484 1482 1481 1480 1480 1480 1480 1479 1478 1476 1474 1470 1465 1461 1456
1491 1491 1492 1492 1492 1492 1492 1493 1493 1494 1495 1496 1496 1496 1497 1497 1496 1496 1495 1495 1495 1494 1494 1493 1493 1492 1491 1491 1490 1489 1488 1487 1486 1485 1484 1483 1482 1481 1480 1479 1478 1478 1478 1478 1477 1478 1477 1476 1473 1467 1464 1461
1487 1487 1488 1488 1488 1488 1489 1489 1489 1490 1492 1492 1493 1493 1493 1494 1494 1493 1492 1492 1492 1492 1491 1491 1490 1489 1488 1488 1487 1486 1485 1485 1484 1483 1481 1480 1479 1478 1478 1477 1476 1475 1475 1475 1475 1475 1474 1473 1473 1469 1466 1464
Wind_Speed
6 6 7 7 8 8 8 7 7 7 8 8 9 9 10 11 11 12 12 12 12 12 12 12 13 13 14 14 14 14 14 14 14 15 15 15 15 16 16 16 17 17 18 18 19 19 20 22 22 21 20 21
5 6 6 6 6 6 6 6 6 7 7 8 8 9 9 10 10 10 10 10 11 11 11 12 12 13 13 14 14 15 15 15 14 15 15 15 15 15 16 17 17 18 18 18 18 19 20 21 22 22 21 20
4 4 4 3 3 3 4 4 5 6 6 7 7 7 8 8 8 9 9 9 9 10 10 11 11 12 12 13 13 14 15 15 15 15 15 15 15 16 16 16 17 17 18 18 18 19 19 20 21 22 22 22
3 3 2 0 1 2 2 3 4 4 5 6 6 6 7 7 7 8 8 8 9 9 10 10 11 11 11 12 12 12 13 13 14 15 15 15 15 16 16 16 16 16 17 17 18 19 19 20 21 22 23 24
2 1 1 1 2 2 3 3 4 4 5 5 6 6 7 7 7 8 8 9 9 10 10 11 12 12 12 12 12 12 12 13 13 13 14 14 15 15 15 15 15 15 15 16 17 18 19 19 21 22 23 23
2 1 1 2 2 2 3 3 4 4 5 5 6 6 7 7 8 9 9 10 11 11 12 12 12 12 12 12 12 13 13 13 13 13 14 14 14 14 15 15 14 14 15 16 16 17 17 18 19 21 22 23
2 2 2 2 1 2 2 3 4 4 5 6 6 7 8 8 9 10 10 11 12 12 12 12 12 12 12 12 12 12 12 13 13 13 14 14 14 14 14 14 15 15 16 16 16 17 17 18 19 19 20 22
3 3 2 2 1 2 3 4 5 5 6 7 7 8 8 9 9 10 10 11 11 11 11 11 12 12 12 12 12 13 12 12 13 13 13 14 14 14 14 15 15 16 16 17 17 18 18 18 19 20 20 21
4 3 2 2 2 3 4 5 6 6 7 7 8 8 9 9 10 10 10 11 11 11 11 12 12 12 13 13 13 14 14 14 14 14 14 14 14 15 15 16 17 17 17 17 18 19 19 20 20 21 21 21
3 2 3 3 3 4 4 5 6 6 6 7 7 8 8 9 9 10 10 11 11 11 12 12 13 13 14 15 15 15 15 16 16 16 16 16 17 17 17 17 17 18 18 18 19 19 20 20 21 21 22 23
2 3 3 3 3 4 4 4 5 5 5 6 6 7 8 8 9 10 11 11 12 12 13 14 14 15 15 16 16 17 17 18 18 18 18 18 18 18 18 18 18 18 19 19 19 19 20 21 21 22 23 23
3 2 2 2 2 2 3 3 4 4 5 6 7 8 9 10 11 11 12 13 14 14 15 16 16 16 16 16 17 18 18 18 18 19 19 20 20 20 20 20 19 19 19 19 20 20 20 20 21 22 23 23
3 3 2 1 1 1 2 3 4 5 6 7 8 9 10 11 12 13 13 14 15 16 16 16 17 17 17 17 18 18 18 19 19 19 20 20 21 21 22 22 22 21 21 21 21 21 21 21 21 22 23 24
4 3 2 1 1 1 2 3 4 6 7 8 9 10 11 11 12 13 14 14 15 15 16 16 17 17 18 18 18 18 19 20 20 20 21 21 22 22 23 23 24 24 23 23 23 23 23 23 23 23 23 24
5 4 3 2 1 1 3 4 5 6 7 8 9 10 11 12 13 13 14 14 14 15 15 16 17 17 18 19 19 20 20 20 21 21 21 22 22 23 23 24 24 24 25 24 24 24 24 24 24 24 24 24
6 5 4 2 1 2 3 4 6 6 7 8 9 10 11 12 13 13 14 14 15 16 16 17 17 18 19 19 20 20 20 20 21 21 21 21 22 22 23 23 23 24 25 25 24 25 25 25 25 26 26 26
7 6 4 2 1 2 3 5 6 6 7 8 9 10 11 12 13 13 14 15 16 16 17 18 18 19 20 20 21 21 21 21 20 21 21 21 21 22 23 24 24 25 25 25 25 25 25 25 26 26 27 27
8 6 4 2 1 2 4 5 6 6 7 8 9 9 10 11 12 13 14 15 16 17 18 19 20 20 21 21 22 22 22 22 22 22 23 24 24 23 25 26 27 28 27 27 27 26 26 26 27 27 28 28
9 7 5 3 3 2 4 5 6 6 7 8 9 9 10 11 12 13 14 15 17 18 18 19 20 21 22 22 22 23 23 24 24 24 24 26 26 26 26 27 28 29 30 30 29 29 28 28 28 27 27 28
10 8 6 5 4 4 4 5 6 7 7 8 9 10 10 12 13 14 15 16 17 19 20 20 21 22 23 23 23 23 24 25 25 25 25 26 27 28 29 29 30 30 31 32 32 31 30 29 29 28 28 28
12 10 9 8 7 6 5 6 7 7 7 7 8 9 10 11 13 14 16 17 19 20 21 22 23 23 24 24 25 25 25 26 26 27 27 27 27 29 30 31 32 32 33 33 34 34 32 31 29 28 28 29
14 12 11 11 9 8 7 7 8 7 7 7 7 9 10 10 12 13 15 17 19 20 22 23 24 24 25 26 26 26 26 27 27 28 28 29 29 29 30 31 33 34 35 35 36 36 34 32 30 29 28 28
16 15 14 13 12 11 9 8 9 9 8 7 7 8 9 10 11 12 14 16 18 20 22 23 24 25 26 26 27 27 27 27 28 28 29 30 30 30 30 31 33 35 36 38 38 37 37 35 33 31 29 26
19 18 17 15 15 14 11 10 11 10 9 9 8 8 9 10 11 12 14 15 17 19 21 23 24 25 25 26 27 27 28 28 29 29 30 31 32 32 32 32 32 34 37 39 40 39 39 38 37 34 29 26
20 20 19 17 17 15 12 12 13 12 11 11 9 9 10 10 12 13 14 15 17 19 21 22 24 24 25 26 27 27 28 28 29 29 31 32 32 33 34 34 34 35 37 40 42 44 44 43 40 35 32 29
22 22 21 19 17 16 15 16 16 15 13 13 12 11 11 11 12 13 14 15 17 18 20 21 22 24 24 25 26 27 28 28 29 29 30 31 32 33 34 35 35 35 36 38 40 43 46 46 43 39 34 27
24 23 21 20 19 19 19 19 19 18 16 16 14 12 11 12 13 14 15 15 16 17 19 20 21 22 23 24 25 26 27 27 28 28 29 30 32 33 33 34 34 34 34 35 37 37 40 43 44 41 32 30
24 23 22 23 23 23 23 23 22 20 18 18 15 12 12 13 14 15 16 16 17 17 18 19 20 21 22 22 24 25 26 27 27 28 28 29 30 31 33 33 34 34 33 33 34 33 32 34 33 30 32 45
25 25 24 25 26 26 27 26 25 23 20 18 16 14 13 13 15 17 18 17 18 18 18 19 20 21 21 22 23 24 25 26 26 27 28 28 29 29 31 32 33 33 32 31 31 29 28 23 21 26 37 48
26 27 26 27 28 29 29 28 26 24 21 19 18 16 15 15 17 19 20 20 20 20 20 20 20 21 22 22 23 24 25 26 27 27 28 28 29 29 30 31 32 32 31 31 30 29 27 23 23 31 38 36
28 29 28 29 30 30 30 29 28 25 23 22 21 20 20 19 20 21 22 22 22 22 22 22 22 23 23 24 24 25 26 26 27 28 28 29 29 30 30 30 32 32 31 31 31 29 28 29 29 31 32 30
Wind_Direction
299 306 309 315 318 325 333 343 356 9 19 26 30 32 35 37 38 38 38 36 35 33 30 28 26 23 20 18 16 13 9 4 359 355 350 345 341 337 334 331 329 327 326 326 324 322 320 321 323 324 324 325
293 304 310 318 326 336 348 360 11 19 26 29 31 32 34 36 37 38 38 38 37 35 33 31 30 27 24 21 18 16 14 11 7 3 358 354 350 345 340 336 332 329 326 325 323 322 320 319 320 321 322 320
301 311 317 326 339 354 9 17 21 22 24 25 26 27 30 32 34 34 34 35 34 34 32 30 29 27 24 21 18 15 11 9 7 5 3 360 357 354 350 344 339 334 329 326 324 322 319 318 317 318 318 319
301 304 301 351 33 47 43 39 34 29 26 24 24 25 27 28 29 30 30 31 31 32 29 28 28 26 23 20 17 14 10 7 4 3 1 360 358 356 355 352 347 341 335 330 327 323 320 318 315 314 314 316
257 241 177 120 87 74 47 37 29 21 17 14 14 15 17 18 19 23 23 23 24 24 23 22 22 21 19 16 14 11 9 7 3 1 360 358 356 354 353 352 349 346 344 340 336 331 326 321 317 315 314 313
194 174 136 100 70 54 34 29 20 13 11 8 9 9 9 8 10 13 14 15 16 15 14 13 13 12 11 9 8 6 4 3 1 358 357 355 353 352 350 347 344 344 345 345 344 341 336 330 325 321 319 317
172 158 138 109 78 48 36 29 23 19 16 14 14 13 11 10 10 11 10 11 12 11 9 7 6 5 4 3 2 1 0 358 356 356 354 351 349 348 345 343 342 342 342 343 343 342 340 338 336 332 327 323
173 158 143 111 81 45 35 30 28 25 21 19 18 17 16 14 13 11 10 10 9 7 4 3 2 359 359 359 358 357 355 354 354 354 351 349 348 345 343 343 343 343 342 342 341 341 340 340 339 337 334 329
171 149 112 76 57 42 33 28 28 26 24 22 19 17 14 13 12 8 7 5 4 1 360 359 357 356 356 355 355 354 352 352 352 351 349 349 348 347 348 348 346 344 343 343 342 341 340 339 337 336 335 333
154 109 73 50 41 39 33 28 27 24 21 20 17 14 10 9 5 2 1 359 358 357 356 356 354 354 355 353 352 352 353 352 351 350 349 349 350 351 351 351 350 348 345 343 343 342 340 338 336 334 333 332
126 88 67 49 43 42 36 32 28 18 13 11 10 7 4 1 358 357 356 354 354 353 355 355 354 355 355 353 351 351 352 351 350 349 349 349 349 349 349 349 350 349 347 344 343 342 339 337 335 333 331 329
132 108 91 67 54 46 38 30 20 8 4 4 4 2 0 358 357 357 355 354 354 354 355 354 353 354 352 352 352 351 350 348 348 348 347 347 346 346 345 345 347 348 348 346 343 342 339 337 335 332 330 329
164 147 129 103 68 27 15 10 9 4 3 3 1 0 360 359 358 358 357 356 355 355 354 352 352 350 349 349 350 349 347 346 346 346 346 345 344 344 343 342 342 345 347 346 344 342 340 338 335 332 330 329
187 174 163 161 238 306 342 354 1 1 0 360 358 357 356 357 357 357 357 356 355 354 352 351 350 347 347 347 346 346 346 345 345 344 345 344 342 342 342 341 340 341 343 344 343 341 340 338 336 334 331 329
199 191 185 184 244 301 340 350 354 354 354 354 354 355 354 354 355 354 354 353 352 350 349 348 347 347 346 345 343 344 343 343 343 342 343 342 341 340 340 339 338 338 339 340 340 339 339 338 336 334 331 329
208 204 195 191 268 328 341 345 346 347 349 351 352 352 351 351 350 350 350 349 348 347 347 346 346 345 343 343 342 341 341 341 340 339 339 339 339 338 336 336 335 335 336 337 337 337 337 337 335 334 331 330
215 211 203 197 275 330 334 337 339 342 346 347 348 347 346 346 345 346 346 346 346 345 345 344 343 343 342 341 340 339 339 338 338 336 335 335 335 334 333 332 331 332 333 334 335 336 336 335 334 333 331 329
220 215 210 207 248 308 318 325 330 333 338 339 340 340 340 342 342 344 345 345 344 343 343 342 341 341 340 340 339 338 337 336 336 336 334 333 333 334 333 332 332 331 331 332 333 334 335 335 334 333 330 328
227 223 216 221 242 277 304 312 318 320 325 330 332 335 337 340 342 343 344 343 342 341 341 340 339 339 338 338 338 337 335 335 335 335 334 333 332 333 333 332 331 330 331 331 331 333 334 335 333 333 330 327
234 231 226 230 242 258 286 297 303 305 313 323 327 331 335 338 340 342 342 342 342 341 341 341 339 337 336 336 336 335 335 334 333 333 334 334 332 331 332 332 330 330 329 329 330 331 333 334 333 332 330 326
237 237 236 237 242 250 268 283 292 298 306 317 322 325 329 334 338 340 341 342 341 342 341 340 339 337 336 335 335 335 335 334 334 333 333 333 333 331 331 331 330 329 328 329 329 329 331 333 332 331 329 325
241 241 241 242 245 249 258 272 284 293 298 307 313 316 322 329 335 338 339 340 340 341 341 340 339 337 336 335 335 335 336 335 334 333 332 332 332 331 331 331 330 329 328 328 327 327 329 331 330 329 327 324
243 243 243 244 247 249 253 266 277 285 290 296 303 308 315 322 330 334 336 337 338 339 339 339 338 337 336 335 335 335 335 335 334 333 332 331 331 330 331 331 330 328 327 327 326 327 327 327 328 329 328 324
243 244 245 245 248 250 254 263 268 277 282 285 292 297 304 312 321 328 332 334 335 336 337 337 337 337 337 336 335 335 335 335 334 333 332 331 330 329 329 330 329 328 327 326 325 324 325 326 328 329 328 324
244 245 246 247 250 254 256 259 263 271 275 277 282 285 293 302 310 319 325 328 330 333 334 335 336 336 336 336 335 335 335 335 335 334 332 331 330 329 329 329 329 329 329 328 325 325 325 326 328 328 327 325
244 245 247 251 255 259 260 259 261 264 267 271 273 277 285 292 300 309 316 320 323 327 329 331 332 332 333 333 333 334 335 335 335 334 333 331 330 330 329 329 330 330 331 331 330 328 325 326 327 326 325 323
243 246 251 257 260 262 261 258 259 261 263 266 267 271 277 282 291 299 305 309 314 318 321 323 325 326 327 328 330 331 332 333 333 333 332 331 330 330 329 329 329 330 332 331 330 330 327 327 327 325 324 318
246 250 255 259 260 261 258 256 257 259 260 261 263 265 267 277 285 289 294 299 303 307 311 314 316 318 320 322 324 326 327 329 330 330 331 331 330 330 329 329 328 329 332 329 328 330 327 327 326 322 320 318
248 251 254 257 258 258 256 255 256 257 259 259 261 262 263 272 278 282 287 290 293 297 300 303 306 308 311 315 317 320 322 323 325 326 327 328 329 330 329 328 328 328 329 328 326 326 323 322 318 312 315 319
247 250 252 254 255 255 255 257 257 258 260 259 260 261 262 266 271 277 281 283 286 288 291 293 296 300 303 307 310 313 316 318 320 321 322 324 325 327 327 326 325 326 326 324 323 321 316 311 306 305 311 316
247 249 250 251 253 254 256 259 259 260 261 260 260 260 261 262 266 271 275 278 281 282 284 286 288 292 295 299 303 305 308 311 313 314 316 318 319 321 323 323 322 322 322 321 320 318 313 307 302 301 304 306